Content
SEND FEEDBACK

Daily
Averages
Monthly
Summary
United States of America

SHERIDAN, MONTANA


Home > North America > United States > Montana
Elevation: 5199 feet     Latitude: 45 15N     Longitude: 112 33W

WEATHER
 
SELECT A DAY
Number of Records: 162,062;   Date Range: 5/14/97 - 8/28/14
 
SHARE

PRINT THIS DATA

[ ← Previous Day ]
WEATHER ALMANAC - JANUARY 31, 2013
[ Next Day → ]
[ °C ]   °F
Weather ElementAverageHighLow
Temperature35.8 °F37.9 °F (11:53 am)33.1 °F (2:53 am)
Dewpoint24.7 °F27 °F (2:53 pm)21.9 °F (1:53 am)
Humidity64 %70 % (4:53 pm)59 % (10:53 am)
Barometer30.14 in30.18 in (11:53 am)30.09 in (1:53 am)
Wind Speed13.8 mph19.6 mph (6:53 am)
Wind Gust27.6 mph (6:53 am)
Weather ElementAverage
Wind DirectionSW (225.7 °)

Weather ElementTotal
Precipitation---
Heating Degree Days29.5 (Base 65)
Averaged from 23 records on January 31, 2013
WEATHER CONDITIONS BREAKOUT
WIND DIRECTION BREAKOUT
WEATHER BY HOUR - JANUARY 31, 2013
[ °C ]   °F
Local TimeTemperatureDewpointHumidityBarometerVisibilityWind DirectionWind SpeedGust SpeedPrecipitationEventsConditions
1:53 AM34.0 °F21.9 °F61 %30.09 inSW (220°)9.2 mphOvercast
2:53 AM33.1 °F21.9 °F64 %30.10 inSSW (200°)10.4 mphOvercast
3:53 AM33.1 °F21.9 °F64 %30.13 inSSW (210°)16.1 mphOvercast
4:53 AM34.0 °F23.0 °F64 %30.13 inSW (220°)13.8 mphOvercast
5:53 AM33.1 °F23.0 °F66 %30.14 inSW (220°)11.5 mphOvercast
6:53 AM35.1 °F23.0 °F61 %30.14 inWSW (240°)19.6 mph27.6 mphOvercast
7:53 AM35.1 °F23.0 °F61 %30.15 inSW (220°)10.4 mph20.7 mphOvercast
8:53 AM35.1 °F24.1 °F64 %30.16 inWSW (240°)13.8 mphOvercast
9:53 AM36.0 °F24.1 °F62 %30.17 inWSW (250°)15.0 mphClear
10:53 AM37.0 °F24.1 °F59 %30.17 inWSW (250°)17.3 mph25.3 mphOvercast
11:53 AM37.9 °F25.0 °F60 %30.18 inSW (230°)15.0 mphOvercast
12:53 PM37.9 °F25.0 °F60 %30.17 inSW (220°)15.0 mphOvercast
1:53 PM37.9 °F26.1 °F62 %30.16 inSW (230°)17.3 mphOvercast
2:53 PM37.9 °F27.0 °F65 %30.15 inSW (220°)13.8 mphOvercast
3:53 PM37.9 °F26.1 °F62 %30.15 inSW (230°)15.0 mphOvercast
4:53 PM36.0 °F27.0 °F70 %30.16 inSW (220°)9.2 mphMostly Cloudy
5:53 PM36.0 °F27.0 °F70 %30.16 inSW (230°)12.7 mphMostly Cloudy
6:53 PM37.0 °F26.1 °F65 %30.15 inWSW (240°)11.5 mphOvercast
7:53 PM37.0 °F25.0 °F62 %30.15 inSouth (180°)11.5 mphOvercast
8:53 PM35.1 °F26.1 °F70 %30.14 inSW (230°)12.7 mphMostly Cloudy
9:53 PM37.0 °F25.0 °F62 %30.12 inSW (230°)15.0 mphMostly Cloudy
10:53 PM35.1 °F26.1 °F70 %30.12 inSW (230°)13.8 mphMostly Cloudy
11:53 PM36.0 °F26.1 °F67 %30.10 inSW (230°)18.4 mphScattered Clouds
Hourly data recorded from KDLN, located miles away from Sheridan, Montana







STORIES FROM OUR PARTNERS